Weather History for MMTP - April, 2013

Change the Weather History Date:

Sunday, April 7, 2013

  Actual Average Record
Temperature  
Mean Temperature 84 °F -  
Max Temperature 91 °F 88 °F 98 °F (1999)
Min Temperature 77 °F 74 °F 73 °F (1999)
Cooling Degree Days 19    
Growing Degree Days 34 (Base 50)    
Moisture  
Dew Point 74 °F    
Average Humidity 71    
Maximum Humidity 83    
Minimum Humidity 52    
Precipitation  
Precipitation 0.00 in - - ()
Sea Level Pressure  
Sea Level Pressure 29.87 in    
Wind  
Wind Speed 2 mph ()    
Max Wind Speed 12 mph    
Max Gust Speed -    
Visibility 8.0 miles    
Events      
Averages and records for this station are not official NWS values.
T = Trace of Precipitation, MM = Missing Value Source: Averaged Metar Reports

Daily Weather History Graph

Daily Weather History Graph

Search for Another Location

Airport or City:

Trip Planner

Search our weather history database for the weather conditions in past years. The results will help you decide how hot, cold, wet, or windy it might be!

Date:

Astronomy

Apr. 07, 2013 Rise Set
Actual Time 7:00 AM CDT 7:22 PM CDT
Civil Twilight 6:39 AM CDT 7:44 PM CDT
Nautical Twilight 6:13 AM CDT 8:09 PM CDT
Astronomical Twilight 5:48 AM CDT 8:34 PM CDT
Moon 4:54 AM CDT (4/7) 5:13 PM CDT (4/7)
Length of Visible Light 13h 05m
Length of Day
12h 21m
Waning Crescent, 8% of the Moon is Illuminated
Apr 7
Waning Crescent
Apr 10
New
Apr 18
First Quarter
Apr 25
Full
May 2
Last Quarter

Hourly Weather History & Observations

Time (CDT) Temp. Heat Index Dew Point Humidity Pressure Visibility Wind Dir Wind Speed Gust Speed Precip Events Conditions
12:40 AM 82.4 °F 88.2 °F 73.4 °F 74% 29.90 in 10.0 mi Calm Calm - N/A   Clear
1:40 AM 82.4 °F 88.2 °F 73.4 °F 74% 29.90 in 10.0 mi Calm Calm - N/A   Clear
4:40 AM 82.4 °F 88.2 °F 73.4 °F 74% 29.90 in 10.0 mi Calm Calm - N/A   Clear
6:40 AM 78.8 °F - 71.6 °F 78% 29.84 in 10.0 mi Calm Calm - N/A   Scattered Clouds
7:40 AM 77.0 °F - 71.6 °F 83% 29.89 in 10.0 mi Calm Calm - N/A   Scattered Clouds
8:40 AM 77.0 °F - 71.6 °F 83% 29.89 in 10.0 mi Calm Calm - N/A   Scattered Clouds
9:40 AM 86.0 °F 91.8 °F 71.6 °F 62% 29.86 in 10.0 mi Calm Calm - N/A   Scattered Clouds
10:40 AM 87.8 °F 93.8 °F 71.6 °F 58% 29.93 in 10.0 mi Calm Calm - N/A   Scattered Clouds
11:40 AM 91.4 °F 98.4 °F 71.6 °F 52% 29.92 in 10.0 mi Calm Calm - N/A   Scattered Clouds
12:40 PM 91.4 °F 98.4 °F 71.6 °F 52% 29.87 in 10.0 mi Calm Calm - N/A   Scattered Clouds
1:40 PM 87.8 °F 93.8 °F 71.6 °F 58% 29.89 in 10.0 mi Calm Calm - N/A   Scattered Clouds
2:41 PM 87.8 °F 95.6 °F 73.4 °F 62% 29.85 in 6.0 mi SW 11.5 mph - N/A   Mostly Cloudy
3:40 PM 86.0 °F 95.1 °F 75.2 °F 70% 29.80 in 6.0 mi SW 11.5 mph - N/A   Mostly Cloudy
4:55 PM 87.8 °F 95.6 °F 73.4 °F 62% 29.85 in 6.0 mi SW 11.5 mph - N/A   Mostly Cloudy
5:40 PM 86.0 °F 96.9 °F 77.0 °F 74% 29.82 in 6.0 mi SW 11.5 mph - N/A   Mostly Cloudy
6:40 PM 86.0 °F 96.9 °F 77.0 °F 74% 29.78 in 6.0 mi SW 11.5 mph - N/A   Mostly Cloudy
7:40 PM 82.4 °F 89.5 °F 75.2 °F 79% 29.87 in 6.0 mi West 6.9 mph - N/A   Mostly Cloudy
8:40 PM 82.4 °F 89.5 °F 75.2 °F 79% 29.87 in 6.0 mi Calm Calm - N/A   Scattered Clouds
9:40 PM 82.4 °F 89.5 °F 75.2 °F 79% 29.83 in 6.0 mi Calm Calm - N/A   Scattered Clouds
10:40 PM 82.4 °F 89.5 °F 75.2 °F 79% 29.92 in 6.0 mi Calm Calm - N/A   Scattered Clouds
11:44 PM 82.4 °F 89.5 °F 75.2 °F 79% 29.92 in 6.0 mi Calm Calm - N/A   Scattered Clouds
12:40 AM 82.4 °F 89.5 °F 75.2 °F 79% 29.88 in 6.0 mi Calm Calm - N/A   Scattered Clouds